When you browse on this site, cookies collect data to enhance your experience and personalize the content and advertising you see.
Visit our Privacy Policy to learn more. By continuing to use the site, you agree to this use of cookies and data.
  • In Hungary
  • List of Countries
  • For 7 days
  • Water Temperature
  • Satellite Maps
  • Weather Map
  • News
  • Weather Widgets
  • user-avatar
    Login

    Hourly Weather Baronissi

    Today, 11 December, Tuesday

    Time Temperature Precipitation Wind Pressure Humidity
    00:00 +8°C° 0 mm 3 mps 739 mmHg 77%
    01:00 +7°C° 0 mm 3 mps 739 mmHg 78%
    02:00 +7°C° 0.1 mm 3 mps 739 mmHg 78%
    03:00 +7°C° 0.1 mm 3 mps 739 mmHg 78%
    04:00 +5°C° 0.1 mm 3 mps 739 mmHg 79%
    05:00 +5°C° 0 mm 3 mps 740 mmHg 78%
    06:00 +5°C° 0 mm 3 mps 740 mmHg 77%
    07:00 +6°C° 0 mm 2 mps 740 mmHg 76%
    08:00 +7°C° 0 mm 2 mps 740 mmHg 67%
    09:00 +9°C° 0 mm 1 mps 740 mmHg 59%
    10:00 +10°C° 0 mm 1 mps 741 mmHg 50%
    11:00 +11°C° 0 mm 1 mps 741 mmHg 46%
    12:00 +12°C° 0 mm 1 mps 741 mmHg 42%
    13:00 +12°C° 0 mm 1 mps 741 mmHg 38%
    14:00 +12°C° 0 mm 1 mps 741 mmHg 41%
    15:00 +11°C° 0 mm 1 mps 741 mmHg 44%
    16:00 +11°C° 0 mm 1 mps 741 mmHg 47%
    17:00 +10°C° 0 mm 1 mps 741 mmHg 51%
    18:00 +9°C° 0 mm 1 mps 741 mmHg 55%
    19:00 +7°C° 0 mm 2 mps 742 mmHg 59%
    20:00 +7°C° 0 mm 2 mps 742 mmHg 61%
    21:00 +7°C° 0 mm 2 mps 742 mmHg 64%
    22:00 +7°C° 0 mm 2 mps 742 mmHg 66%
    23:00 +6°C° 0 mm 2 mps 742 mmHg 67%

    Tomorrow, 12 December, Wednesday

    Time Temperature Precipitation Wind Pressure Humidity
    00:00 +6°C° 0 mm 2 mps 742 mmHg 68%
    01:00 +5°C° 0 mm 2 mps 742 mmHg 68%
    02:00 +5°C° 0 mm 2 mps 742 mmHg 67%
    03:00 +5°C° 0 mm 2 mps 742 mmHg 66%
    04:00 +5°C° 0 mm 2 mps 742 mmHg 65%
    05:00 +4°C° 0 mm 2 mps 742 mmHg 64%
    06:00 +4°C° 0 mm 2 mps 742 mmHg 63%
    07:00 +4°C° 0 mm 2 mps 743 mmHg 61%
    08:00 +6°C° 0 mm 2 mps 743 mmHg 56%
    09:00 +7°C° 0 mm 2 mps 743 mmHg 51%
    10:00 +8°C° 0 mm 2 mps 743 mmHg 47%
    11:00 +9°C° 0 mm 2 mps 743 mmHg 43%
    12:00 +10°C° 0 mm 2 mps 743 mmHg 39%
    13:00 +12°C° 0 mm 2 mps 742 mmHg 35%
    14:00 +10°C° 0 mm 2 mps 742 mmHg 37%
    15:00 +9°C° 0 mm 2 mps 742 mmHg 40%
    16:00 +9°C° 0 mm 2 mps 741 mmHg 42%
    17:00 +8°C° 0 mm 2 mps 741 mmHg 43%
    18:00 +8°C° 0 mm 2 mps 741 mmHg 44%
    19:00 +7°C° 0 mm 2 mps 741 mmHg 46%
    20:00 +7°C° 0 mm 3 mps 741 mmHg 47%
    21:00 +7°C° 0 mm 3 mps 741 mmHg 49%
    22:00 +7°C° 0 mm 3 mps 741 mmHg 51%
    23:00 +7°C° 0.2 mm 3 mps 741 mmHg 53%

    Day after tomorrow, 13 December, Thursday

    Time Temperature Precipitation Wind Pressure Humidity
    00:00 +5°C° 0.2 mm 3 mps 740 mmHg 56%
    01:00 +5°C° 0.2 mm 3 mps 740 mmHg 59%
    02:00 +5°C° 0.1 mm 3 mps 739 mmHg 61%
    03:00 +5°C° 0.1 mm 3 mps 739 mmHg 63%
    04:00 +6°C° 0.1 mm 2 mps 739 mmHg 65%
    05:00 +5°C° 0 mm 3 mps 738 mmHg 66%
    06:00 +5°C° 0 mm 3 mps 738 mmHg 68%
    07:00 +5°C° 0 mm 3 mps 738 mmHg 69%
    08:00 +7°C° 0 mm 2 mps 738 mmHg 67%
    09:00 +8°C° 0 mm 2 mps 738 mmHg 66%
    10:00 +9°C° 0 mm 2 mps 738 mmHg 64%
    11:00 +9°C° 0.1 mm 2 mps 738 mmHg 64%
    12:00 +10°C° 0.1 mm 2 mps 737 mmHg 63%
    13:00 +12°C° 0.1 mm 2 mps 737 mmHg 63%
    14:00 +12°C° 0.1 mm 2 mps 737 mmHg 67%
    15:00 +10°C° 0.1 mm 2 mps 737 mmHg 71%
    16:00 +10°C° 0.1 mm 2 mps 736 mmHg 75%
    17:00 +10°C° 0.1 mm 2 mps 737 mmHg 77%
    18:00 +10°C° 0.1 mm 1 mps 737 mmHg 80%
    19:00 +10°C° 0.1 mm 1 mps 737 mmHg 82%
    20:00 +9°C° 0.1 mm 2 mps 737 mmHg 83%
    21:00 +9°C° 0.1 mm 2 mps 737 mmHg 85%
    22:00 +9°C° 0.1 mm 2 mps 737 mmHg 86%
    23:00 +9°C° 0.3 mm 2 mps 737 mmHg 87%

    14 December, Friday

    Time Temperature Precipitation Wind Pressure Humidity
    00:00 +9°C° 0.3 mm 2 mps 737 mmHg 88%
    01:00 +9°C° 0.3 mm 2 mps 737 mmHg 88%
    02:00 +9°C° 0.3 mm 2 mps 736 mmHg 88%
    03:00 +9°C° 0.3 mm 2 mps 736 mmHg 88%
    04:00 +9°C° 0.3 mm 2 mps 736 mmHg 88%
    05:00 +9°C° 0.1 mm 2 mps 736 mmHg 87%
    06:00 +9°C° 0.1 mm 2 mps 736 mmHg 86%
    07:00 +8°C° 0.1 mm 2 mps 736 mmHg 85%
    08:00 +10°C° 0 mm 2 mps 736 mmHg 80%
    09:00 +12°C° 0 mm 2 mps 736 mmHg 74%
    10:00 +13°C° 0 mm 2 mps 736 mmHg 69%
    11:00 +13°C° 0 mm 2 mps 736 mmHg 65%
    12:00 +14°C° 0 mm 2 mps 736 mmHg 61%
    13:00 +15°C° 0 mm 2 mps 735 mmHg 57%
    14:00 +14°C° 0 mm 2 mps 735 mmHg 61%
    15:00 +14°C° 0 mm 2 mps 735 mmHg 64%
    16:00 +13°C° 0 mm 2 mps 735 mmHg 67%
    17:00 +13°C° 0.1 mm 2 mps 735 mmHg 71%
    18:00 +11°C° 0.1 mm 3 mps 736 mmHg 75%
    19:00 +10°C° 0.1 mm 3 mps 736 mmHg 79%
    20:00 +10°C° 0.1 mm 3 mps 736 mmHg 81%
    21:00 +10°C° 0.1 mm 3 mps 736 mmHg 83%
    22:00 +10°C° 0.1 mm 3 mps 736 mmHg 84%
    23:00 +10°C° 0.2 mm 4 mps 736 mmHg 84%

    15 December, Saturday

    Time Temperature Precipitation Wind Pressure Humidity
    00:00 +8°C° 0.2 mm 4 mps 736 mmHg 84%
    01:00 +8°C° 0.2 mm 4 mps 736 mmHg 84%
    02:00 +8°C° 0.3 mm 4 mps 736 mmHg 84%
    03:00 +8°C° 0.3 mm 4 mps 736 mmHg 84%
    04:00 +8°C° 0.3 mm 5 mps 735 mmHg 85%
    05:00 +8°C° 0.1 mm 5 mps 736 mmHg 83%
    06:00 +8°C° 0.1 mm 6 mps 736 mmHg 82%
    07:00 +8°C° 0.1 mm 6 mps 736 mmHg 80%
    08:00 +8°C° 0 mm 6 mps 737 mmHg 78%
    09:00 +8°C° 0 mm 6 mps 737 mmHg 75%
    10:00 +8°C° 0 mm 5 mps 738 mmHg 72%
    11:00 +8°C° 0 mm 5 mps 738 mmHg 70%
    12:00 +8°C° 0 mm 5 mps 738 mmHg 68%
    13:00 +9°C° 0 mm 5 mps 738 mmHg 65%
    14:00 +8°C° 0 mm 5 mps 738 mmHg 65%
    15:00 +8°C° 0 mm 5 mps 739 mmHg 65%
    16:00 +7°C° 0 mm 5 mps 739 mmHg 65%
    17:00 +7°C° 0 mm 5 mps 740 mmHg 68%
    18:00 +6°C° 0 mm 5 mps 740 mmHg 70%
    19:00 +5°C° 0 mm 5 mps 741 mmHg 72%
    20:00 +5°C° 0 mm 5 mps 741 mmHg 72%
    21:00 +5°C° 0 mm 5 mps 742 mmHg 73%
    22:00 +5°C° 0 mm 4 mps 742 mmHg 73%
    23:00 +4°C° 0 mm 4 mps 742 mmHg 74%

    16 December, Sunday

    Time Temperature Precipitation Wind Pressure Humidity
    00:00 +4°C° 0 mm 4 mps 742 mmHg 74%
    01:00 +4°C° 0 mm 4 mps 742 mmHg 75%
    02:00 +4°C° 0 mm 4 mps 743 mmHg 75%
    03:00 +4°C° 0 mm 4 mps 743 mmHg 75%
    04:00 +3°C° 0 mm 3 mps 743 mmHg 75%
    05:00 +4°C° 0 mm 4 mps 743 mmHg 74%
    06:00 +4°C° 0 mm 4 mps 744 mmHg 72%
    07:00 +4°C° 0 mm 4 mps 744 mmHg 71%
    08:00 +5°C° 0 mm 4 mps 744 mmHg 67%
    09:00 +6°C° 0 mm 4 mps 745 mmHg 64%
    10:00 +7°C° 0 mm 4 mps 745 mmHg 60%
    11:00 +8°C° 0 mm 4 mps 745 mmHg 56%
    12:00 +10°C° 0 mm 3 mps 745 mmHg 51%
    13:00 +10°C° 0 mm 3 mps 745 mmHg 47%
    14:00 +10°C° 0 mm 3 mps 745 mmHg 49%
    15:00 +10°C° 0 mm 3 mps 745 mmHg 51%
    16:00 +9°C° 0 mm 2 mps 745 mmHg 53%
    17:00 +8°C° 0 mm 2 mps 745 mmHg 56%
    18:00 +7°C° 0 mm 2 mps 746 mmHg 60%
    19:00 +6°C° 0 mm 2 mps 746 mmHg 63%
    20:00 +6°C° 0 mm 2 mps 746 mmHg 64%
    21:00 +6°C° 0 mm 2 mps 746 mmHg 64%
    22:00 +6°C° 0 mm 2 mps 746 mmHg 65%
    23:00 +6°C° 0 mm 2 mps 746 mmHg 63%
    Show more